LUCH 5B (38977 NORAD) Tracking and Keplerian Element Data

This shows tracking and keplerian element data for the satellite.

Feedback or suggestion? Click here.




ElementValue
Catalog38977
NameLUCH 5B
Epoch Orbit2272
Epoch Day352.15244593
Epoch Year2018
RAAN71.0197
Inclination4.6384
Eccentricity0.0003934
Argument of Perigee246.5362
Mean Anonmoly167.7943
Mean Motion1.00271818
Decay Rate-1.17E-06
L11 38977U 12061A 18352.15244593 -.00000117 00000-0 00000+0 0 9995
L22 38977 4.6384 71.0197 0003934 246.5362 167.7943 1.00271818 22721

Live tracking and technical data element details for LUCH 5B (NORAD 38977). LUCH 5B can be tracked NOW for your location showing map with azimuth and elevation plus other details from your city location.

Track the satellite on the map from your city or location and see movement details for azimuth, elevation, latitude, longitude, range, height, and movement on the map or in text.







IsCatalogInMostPopularTable: catalog: 38977, numindb: 90
Update: records affected: 1



GetName: 38977 LUCH 5B

Hit Count: updated at: Wed, 19 Dec 2018 16:03:18 GMT